{"data":{"norad_id":60189,"intl_designator":"2024-124G","name":"STARLINK-11183 [DTC]","alt_names":[],"object_type":"PAYLOAD","status":"ACTIVE","operator":null,"country":"US","launch_date":"2024-07-03","launch_site_code":"AFETR","launch_vehicle":null,"mission":null,"orbit_class":"UNKNOWN","rcs_meters":null,"size_class":null,"mass_kg":null,"dimensions":null,"purposes":["comms"],"wikipedia_slug":null,"has_3d_model":false,"image_url":null,"decayed_at":null,"tle_current":{"epoch":"2026-09-21T18:02:56.394240Z","epoch_age_seconds":73101,"freshness":"FRESH","line1":"1 60189U 24124G   26264.75204160  .00000382  00000+0  80115-5 0  9994","line2":"2 60189  53.1591 275.0519 0001214  91.1212 268.9945 15.69704449127320","mean_motion":15.69704449,"eccentricity":0.0001214,"inclination_deg":53.1591,"raan_deg":275.0519,"arg_perigee_deg":91.1212,"mean_anomaly_deg":268.9945,"bstar":8.0115e-6,"rev_number":12732,"period_min":91.737014628287,"perigee_km":358.92465671606,"apogee_km":360.56061389151,"semimajor_km":6737.8796353038,"source":"CELESTRAK","updated_at":"2026-09-22T09:00:49.182862Z"}}}